DW7901 Weather Reports


time (UTC)temp
C
wind
direction
speed
KPH
gust
KPH
rain 1hr
cm
rain 24hr
cm
rain mn
cm
humidity
%
barometer
mb
20260508212004 11 344 0.0 4.8 0.00 0.15 0.15 74 1021.9
20260508211003 12 1 0.0 6.4 0.00 0.23 0.15 73 1021.9
20260508210004 12 343 3.2 6.4 0.00 0.23 0.15 73 1021.9
20260508205004 12 343 3.2 8.0 0.00 0.28 0.15 73 1022.0
20260508204004 12 317 3.2 8.0 0.00 0.28 0.15 74 1022.0
20260508202004 12 300 3.2 11.3 0.00 0.30 0.15 74 1022.0
20260508201004 12 304 6.4 9.7 0.00 0.30 0.15 74 1021.8
20260508200003 12 358 1.6 12.9 0.00 0.33 0.15 74 1021.7
20260508195003 12 355 3.2 6.4 0.00 0.33 0.15 74 1022.0
20260508194004 12 341 3.2 6.4 0.00 0.33 0.15 75 1021.9
20260508193004 12 309 1.6 6.4 0.00 0.33 0.15 74 1022.0
20260508192003 12 351 3.2 6.4 0.00 0.33 0.15 74 1021.6
20260508191004 12 6 3.2 11.3 0.00 0.33 0.15 75 1021.9
20260508190003 12 1 1.6 6.4 0.00 0.33 0.15 75 1021.6
20260508185004 12 1 3.2 8.0 0.00 0.33 0.15 76 1021.7
20260508184003 12 357 1.6 6.4 0.00 0.33 0.15 76 1021.4
20260508182004 12 359 3.2 9.7 0.00 0.36 0.15 74 1021.2
20260508181004 12 287 0.0 16.1 0.00 0.36 0.15 74 1021.2
20260508180003 13 5 11.3 17.7 0.00 0.36 0.15 74 1020.9
20260508175004 13 14 9.7 17.7 0.00 0.36 0.15 74 1021.0
20260508174004 13 8 11.3 16.1 0.00 0.36 0.15 73 1020.9
20260508173004 13 1 6.4 12.9 0.00 0.36 0.15 72 1020.9
20260508172004 13 358 6.4 16.1 0.00 0.36 0.15 72 1020.9
20260508171004 14 357 6.4 17.7 0.00 0.36 0.15 72 1020.7
20260508165004 14 342 4.8 14.5 0.00 0.38 0.15 71 1020.7
20260508164004 15 356 9.7 16.1 0.00 0.38 0.15 70 1020.5
20260508163004 15 6 6.4 19.3 0.00 0.38 0.15 68 1020.3
20260508161003 15 344 14.5 17.7 0.00 0.38 0.15 66 1020.4
20260508160004 15 10 8.0 17.7 0.00 0.38 0.15 64 1020.4
20260508155004 16 24 8.0 14.5 0.00 0.38 0.15 60 1020.4
20260508153003 16 8 8.0 17.7 0.00 0.43 0.15 60 1020.0
20260508152004 16 15 6.4 17.7 0.00 0.43 0.15 57 1020.3
20260508151003 19 356 8.0 19.3 0.00 0.43 0.15 52 1020.2
20260508150005 18 356 11.3 20.9 0.00 0.43 0.15 55 1020.1
20260508145003 17 8 8.0 17.7 0.00 0.43 0.15 56 1020.1
20260508142004 18 3 3.2 17.7 0.00 0.43 0.15 53 1020.1
20260508141004 20 297 9.7 19.3 0.00 0.43 0.15 52 1020.1
20260508140004 18 15 11.3 20.9 0.00 0.43 0.15 54 1020.2
20260508134003 17 346 0.0 19.3 0.00 0.43 0.15 54 1020.3
20260508133004 18 346 12.9 19.3 0.00 0.43 0.15 53 1020.2
20260508132004 18 6 3.2 11.3 0.00 0.43 0.15 54 1020.0
20260508131003 17 7 9.7 24.1 0.00 0.43 0.15 56 1020.3
20260508124003 17 11 3.2 14.5 0.00 0.43 0.15 58 1020.3
20260508123003 18 27 3.2 17.7 0.00 0.43 0.15 57 1020.4
20260508122004 20 16 6.4 14.5 0.00 0.43 0.15 53 1020.3
20260508121004 18 329 3.2 17.7 0.00 0.43 0.15 63 1020.3
20260508120004 16 9 12.9 19.3 0.00 0.43 0.15 65 1020.2
20260508115004 16 8 14.5 19.3 0.00 0.43 0.15 64 1020.4
20260508114004 17 27 6.4 14.5 0.00 0.43 0.15 64 1020.3
20260508113005 16 15 3.2 16.1 0.00 0.43 0.15 72 1020.3
20260508112003 16 4 4.8 11.3 0.00 0.43 0.15 72 1020.2
20260508111004 15 359 3.2 14.5 0.00 0.43 0.15 73 1020.1
20260508110004 15 355 3.2 9.7 0.00 0.43 0.15 77 1020.1
20260508105003 14 1 4.8 17.7 0.00 0.43 0.15 76 1020.2
20260508103004 14 25 6.4 11.3 0.00 0.43 0.15 77 1020.1
20260508102004 14 4 4.8 14.5 0.00 0.43 0.15 78 1019.9
20260508101004 14 33 9.7 14.5 0.00 0.43 0.15 80 1019.8
20260508100004 13 7 6.4 14.5 0.00 0.43 0.15 81 1019.9
20260508095003 13 19 8.0 12.9 0.00 0.43 0.15 81 1020.1
20260508094003 13 16 6.4 12.9 0.00 0.43 0.15 82 1020.0
20260508093004 13 24 12.9 17.7 0.00 0.43 0.15 82 1019.9
20260508092003 13 38 6.4 12.9 0.03 0.43 0.15 82 1019.8
20260508091003 14 39 6.4 16.1 0.03 0.43 0.15 81 1019.8
20260508090004 14 35 3.2 11.3 0.03 0.43 0.15 80 1019.7
20260508085004 14 42 6.4 12.9 0.03 0.43 0.15 80 1019.7
20260508084004 15 35 6.4 9.7 0.03 0.43 0.15 80 1019.4
20260508083004 15 18 6.4 11.3 0.03 0.43 0.15 84 1019.5
20260508081003 14 355 4.8 9.7 0.00 0.38 0.13 83 1019.3
20260508080004 14 37 4.8 8.0 0.00 0.38 0.13 83 1019.4
20260508074004 14 20 6.4 9.7 0.00 0.38 0.13 83 1019.3
20260508073006 14 14 6.4 9.7 0.00 0.38 0.13 85 1019.4